Location: Memphis International Airport Police
(35.0443°N, 89.9815°W)
Time: 01:32:07
(UTC+00:00)

Intelsat 5-1 Rocket - Pass Details

Date: 26 September 2023
Orbit: 307 x 7252 km, 23.9° (Epoch: 01 December)

Event Time Altitude Azimuth Distance (km) Brightness Sun altitude
Exits shadow 09:23:45 24° 151° (SSE) 1,705 4.3 -30.2°
Drops below altitude 10° 09:29:14 10° 113° (ESE) 3,607 6.5 -29.2°
Sets 09:35:01 0° 104° (ESE) 5,794 7.8 -28.1°
